JST326 YSSY-NZAA

Flight info

Callsign JST326
Flight time N/A
Altitude 35000
Route MARUB7/34R EVONN L521 LUNBI
Aircraft A320/M-SDE3FGHIRWY/LB1

Departure

Time 2026-04-25 06:32
Airport Sydney Kingsford Smith International Airport (YSSY)

Arrival

Time N/A
Airport Auckland International Airport (NZAA)
Time Latitude Longitude Altitude Speed Heading
2026-04-25 05:50 -33.93662 151.17871 34 ft 0 kts 88°
2026-04-25 06:10 -33.93662 151.17858 33 ft 2 kts 91°
2026-04-25 06:11 -33.93661 151.17839 33 ft 2 kts 99°
2026-04-25 06:11 -33.93655 151.17821 33 ft 2 kts 138°
2026-04-25 06:11 -33.93641 151.17815 31 ft 1 kts 183°
2026-04-25 06:11 -33.93637 151.17815 33 ft 0 kts 186°
2026-04-25 06:15 -33.93652 151.17795 31 ft 13 kts 256°
2026-04-25 06:16 -33.93677 151.17673 31 ft 5 kts 166°
2026-04-25 06:16 -33.93741 151.17685 28 ft 20 kts 166°
2026-04-25 06:16 -33.93888 151.17770 24 ft 23 kts 156°
2026-04-25 06:16 -33.94031 151.17813 27 ft 20 kts 169°
2026-04-25 06:17 -33.94164 151.17848 27 ft 19 kts 167°
2026-04-25 06:17 -33.94257 151.17872 27 ft 18 kts 168°
2026-04-25 06:17 -33.94278 151.17877 27 ft 0 kts 168°
2026-04-25 06:17 -33.94357 151.17897 27 ft 29 kts 165°
2026-04-25 06:18 -33.94565 151.17894 27 ft 25 kts 164°
2026-04-25 06:18 -33.94740 151.17939 28 ft 28 kts 167°
2026-04-25 06:18 -33.94934 151.17987 25 ft 28 kts 166°
2026-04-25 06:18 -33.95052 151.18019 29 ft 9 kts 162°
2026-04-25 06:19 -33.95094 151.18057 29 ft 7 kts 120°
2026-04-25 06:19 -33.95095 151.18150 28 ft 16 kts 78°
2026-04-25 06:19 -33.95070 151.18293 28 ft 9 kts 79°
2026-04-25 06:19 -33.95065 151.18318 28 ft 7 kts 78°
2026-04-25 06:20 -33.95050 151.18399 29 ft 13 kts 78°
2026-04-25 06:20 -33.95048 151.18414 29 ft 0 kts 78°
2026-04-25 06:22 -33.95047 151.18423 29 ft 8 kts 79°
2026-04-25 06:22 -33.95127 151.18553 30 ft 30 kts 138°
2026-04-25 06:22 -33.95295 151.18710 29 ft 30 kts 158°
2026-04-25 06:22 -33.95499 151.18768 25 ft 30 kts 167°
2026-04-25 06:23 -33.95693 151.18819 28 ft 28 kts 168°
2026-04-25 06:23 -33.95879 151.18868 30 ft 26 kts 169°
2026-04-25 06:23 -33.95993 151.18897 30 ft 25 kts 168°
2026-04-25 06:23 -33.96136 151.18936 28 ft 8 kts 167°
2026-04-25 06:24 -33.96139 151.18937 28 ft 0 kts 167°
2026-04-25 06:26 -33.96140 151.18937 28 ft 3 kts 167°
2026-04-25 06:26 -33.96297 151.18974 29 ft 35 kts 166°
2026-04-25 06:26 -33.96599 151.19052 22 ft 51 kts 168°
2026-04-25 06:26 -33.96703 151.19083 22 ft 2 kts 134°
2026-04-25 06:27 -33.96713 151.19152 20 ft 3 kts 66°
2026-04-25 06:27 -33.96710 151.19158 20 ft 0 kts 62°
2026-04-25 06:30 -33.96645 151.19198 20 ft 20 kts 18°
2026-04-25 06:30 -33.96512 151.19232 27 ft 0 kts 353°
2026-04-25 06:32 -33.96284 151.19180 27 ft 67 kts 347°
2026-04-25 06:32 -33.95597 151.18997 27 ft 136 kts 349°
2026-04-25 06:32 -33.94544 151.18696 381 ft 159 kts 350°
2026-04-25 06:32 -33.93449 151.18509 1021 ft 162 kts 14°
2026-04-25 06:33 -33.92534 151.19299 1509 ft 171 kts 60°
2026-04-25 06:33 -33.92330 151.20674 2319 ft 169 kts 96°
2026-04-25 06:33 -33.92755 151.22041 2888 ft 187 kts 115°
2026-04-25 06:33 -33.93467 151.23526 3135 ft 221 kts 114°
2026-04-25 06:34 -33.93864 151.25383 3470 ft 241 kts 91°
2026-04-25 06:34 -33.93874 151.27461 4043 ft 253 kts 87°
2026-04-25 06:34 -33.93807 151.29605 4786 ft 258 kts 86°
2026-04-25 06:34 -33.93728 151.31778 5567 ft 262 kts 86°
2026-04-25 06:35 -33.93649 151.33983 6381 ft 265 kts 88°
2026-04-25 06:35 -33.93572 151.36213 7169 ft 269 kts 88°
2026-04-25 06:35 -33.93495 151.38467 8018 ft 269 kts 88°
2026-04-25 06:35 -33.93418 151.40719 8913 ft 270 kts 89°
2026-04-25 06:36 -33.93341 151.42992 9733 ft 274 kts 88°
2026-04-25 06:36 -33.93376 151.45287 10514 ft 276 kts 98°
2026-04-25 06:36 -33.93859 151.47522 11248 ft 277 kts 110°
2026-04-25 06:36 -33.94607 151.49674 11977 ft 280 kts 116°
2026-04-25 06:37 -33.95503 151.51782 12665 ft 284 kts 119°
2026-04-25 06:37 -33.96480 151.53862 13424 ft 287 kts 121°
2026-04-25 06:37 -33.97495 151.55943 14166 ft 290 kts 121°
2026-04-25 06:37 -33.98522 151.58043 14822 ft 293 kts 121°
2026-04-25 06:38 -33.99540 151.60148 15479 ft 296 kts 121°
2026-04-25 06:38 -34.00588 151.62342 16029 ft 305 kts 120°
2026-04-25 06:38 -34.01666 151.64625 16306 ft 322 kts 120°
2026-04-25 06:38 -34.02795 151.67037 16578 ft 339 kts 120°
2026-04-25 06:39 -34.03974 151.69568 16859 ft 354 kts 120°
2026-04-25 06:39 -34.05205 151.72216 17134 ft 369 kts 120°
2026-04-25 06:39 -34.06482 151.74967 17408 ft 384 kts 120°
2026-04-25 06:39 -34.07811 151.77825 17705 ft 396 kts 120°
2026-04-25 06:40 -34.09171 151.80749 18124 ft 404 kts 120°
2026-04-25 06:40 -34.09905 151.82330 18351 ft 408 kts 120°
2026-04-25 06:40 -34.11322 151.85380 18844 ft 413 kts 119°
2026-04-25 06:40 -34.12727 151.88411 19344 ft 416 kts 119°
2026-04-25 06:41 -34.14145 151.91471 19865 ft 418 kts 119°
2026-04-25 06:41 -34.15567 151.94544 20403 ft 420 kts 119°
2026-04-25 06:41 -34.16956 151.97548 20838 ft 419 kts 119°
2026-04-25 06:41 -34.17735 151.99236 21005 ft 422 kts 119°
2026-04-25 06:42 -34.19092 152.02395 21475 ft 426 kts 114°
2026-04-25 06:42 -34.20213 152.05662 21980 ft 428 kts 112°
2026-04-25 06:42 -34.21277 152.09029 22375 ft 433 kts 111°
2026-04-25 06:42 -34.22312 152.12485 22582 ft 442 kts 110°
2026-04-25 06:43 -34.23341 152.16026 22839 ft 449 kts 110°
2026-04-25 06:43 -34.24366 152.19601 23233 ft 453 kts 109°
2026-04-25 06:43 -34.25400 152.23213 23677 ft 455 kts 109°
2026-04-25 06:43 -34.26440 152.26836 24073 ft 458 kts 110°
2026-04-25 06:44 -34.27487 152.30475 24416 ft 460 kts 110°
2026-04-25 06:44 -34.28547 152.34148 24745 ft 463 kts 110°
2026-04-25 06:44 -34.29609 152.37831 25074 ft 466 kts 110°
2026-04-25 06:44 -34.30787 152.41482 25392 ft 467 kts 118°
2026-04-25 06:45 -34.32654 152.44690 25725 ft 468 kts 134°
2026-04-25 06:45 -34.35197 152.47142 26146 ft 469 kts 149°
2026-04-25 06:45 -34.38201 152.48638 26611 ft 469 kts 165°
2026-04-25 06:45 -34.41441 152.49089 27095 ft 470 kts 179°
2026-04-25 06:46 -34.44693 152.48887 27589 ft 469 kts 183°
2026-04-25 06:46 -34.47953 152.48551 28029 ft 468 kts 183°
2026-04-25 06:46 -34.51192 152.48205 28422 ft 465 kts 183°
2026-04-25 06:47 -34.57625 152.47513 28391 ft 465 kts 183°
2026-04-25 06:47 -34.64085 152.47275 28393 ft 464 kts 173°
2026-04-25 06:48 -34.70291 152.49197 28387 ft 462 kts 155°
2026-04-25 06:48 -34.75522 152.53599 28387 ft 463 kts 135°
2026-04-25 06:48 -34.77566 152.56621 28388 ft 463 kts 124°
2026-04-25 06:49 -34.79119 152.60049 28390 ft 464 kts 114°
2026-04-25 06:49 -34.80743 152.67667 28389 ft 468 kts 100°
2026-04-25 06:50 -34.81559 152.75527 28389 ft 469 kts 98°
2026-04-25 06:50 -34.82253 152.83411 28400 ft 469 kts 98°
2026-04-25 06:51 -34.82983 152.91280 28395 ft 467 kts 98°
2026-04-25 06:51 -34.83748 152.99131 28398 ft 467 kts 98°
2026-04-25 06:52 -34.84520 153.06980 28397 ft 467 kts 98°
2026-04-25 06:52 -34.85289 153.14834 28405 ft 467 kts 98°
2026-04-25 06:53 -34.86048 153.22670 28401 ft 465 kts 98°
2026-04-25 06:53 -34.86800 153.30495 28398 ft 465 kts 98°
2026-04-25 06:54 -34.87541 153.38258 28402 ft 464 kts 98°
2026-04-25 06:54 -34.88280 153.46061 28408 ft 464 kts 98°
2026-04-25 06:55 -34.89014 153.53856 28407 ft 463 kts 98°
2026-04-25 06:55 -34.89744 153.61666 28398 ft 464 kts 98°
2026-04-25 06:56 -34.90469 153.69474 28402 ft 463 kts 98°
2026-04-25 06:56 -34.91189 153.77277 28410 ft 463 kts 98°
2026-04-25 06:57 -34.91902 153.85071 28401 ft 463 kts 98°
2026-04-25 06:57 -34.92491 153.91551 28401 ft 463 kts 98°
2026-04-25 06:58 -34.93195 153.99344 28416 ft 463 kts 98°
2026-04-25 06:58 -34.93894 154.07144 28416 ft 463 kts 98°
2026-04-25 06:59 -34.94588 154.14940 28414 ft 463 kts 98°
2026-04-25 06:59 -34.95277 154.22738 28414 ft 463 kts 98°
2026-04-25 07:00 -34.95961 154.30537 28414 ft 463 kts 98°
2026-04-25 07:00 -34.96640 154.38332 28418 ft 462 kts 97°
2026-04-25 07:01 -34.97314 154.46129 28413 ft 462 kts 97°
2026-04-25 07:01 -34.97982 154.53925 28412 ft 463 kts 97°
2026-04-25 07:02 -34.98646 154.61729 28414 ft 463 kts 97°
2026-04-25 07:02 -34.99305 154.69534 28415 ft 463 kts 97°
2026-04-25 07:03 -34.99959 154.77335 28414 ft 462 kts 97°
2026-04-25 07:03 -35.00607 154.85135 28414 ft 462 kts 97°
2026-04-25 07:04 -35.01252 154.92945 28413 ft 462 kts 97°
2026-04-25 07:04 -35.02178 155.00626 28424 ft 459 kts 105°
2026-04-25 07:05 -35.03941 155.08103 28415 ft 458 kts 108°
2026-04-25 07:05 -35.05871 155.15507 28416 ft 458 kts 109°
2026-04-25 07:06 -35.07829 155.22912 28424 ft 459 kts 109°
2026-04-25 07:06 -35.09772 155.30333 28427 ft 459 kts 109°
2026-04-25 07:07 -35.11702 155.37774 28420 ft 459 kts 108°
2026-04-25 07:07 -35.13624 155.45215 28421 ft 459 kts 108°
2026-04-25 07:08 -35.15539 155.52655 28428 ft 459 kts 108°
2026-04-25 07:08 -35.17453 155.60107 28427 ft 459 kts 108°
2026-04-25 07:09 -35.19363 155.67565 28427 ft 459 kts 108°
2026-04-25 07:09 -35.21267 155.75019 28427 ft 459 kts 108°
2026-04-25 07:10 -35.23167 155.82480 28429 ft 459 kts 108°
2026-04-25 07:10 -35.25063 155.89950 28425 ft 459 kts 108°
2026-04-25 07:11 -35.26953 155.97414 28430 ft 459 kts 108°
2026-04-25 07:11 -35.28837 156.04876 28430 ft 459 kts 108°
2026-04-25 07:12 -35.30701 156.12282 28427 ft 459 kts 108°
2026-04-25 07:12 -35.33509 156.23477 28427 ft 458 kts 108°
2026-04-25 07:13 -35.35376 156.30945 28430 ft 459 kts 108°
2026-04-25 07:13 -35.37240 156.38419 28433 ft 459 kts 108°
2026-04-25 07:14 -35.39099 156.45901 28435 ft 459 kts 108°
2026-04-25 07:14 -35.40952 156.53386 28439 ft 459 kts 108°
2026-04-25 07:15 -35.42800 156.60871 28436 ft 458 kts 108°
2026-04-25 07:15 -35.44642 156.68352 28438 ft 458 kts 108°
2026-04-25 07:16 -35.46479 156.75833 28436 ft 458 kts 107°
2026-04-25 07:16 -35.48310 156.83315 28435 ft 458 kts 107°
2026-04-25 07:17 -35.50138 156.90804 28439 ft 458 kts 107°
2026-04-25 07:17 -35.51961 156.98295 28439 ft 458 kts 107°
2026-04-25 07:18 -35.53779 157.05788 28439 ft 458 kts 107°
2026-04-25 07:18 -35.55580 157.13234 28438 ft 458 kts 107°
2026-04-25 07:19 -35.57390 157.20738 28439 ft 458 kts 107°
2026-04-25 07:19 -35.59195 157.28247 28438 ft 458 kts 107°
2026-04-25 07:20 -35.60993 157.35749 28441 ft 458 kts 107°
2026-04-25 07:20 -35.62788 157.43261 28441 ft 458 kts 107°
2026-04-25 07:21 -35.64589 157.50819 28444 ft 458 kts 107°
2026-04-25 07:21 -35.66364 157.58291 28444 ft 458 kts 107°
2026-04-25 07:22 -35.68145 157.65815 28441 ft 458 kts 107°
2026-04-25 07:22 -35.69920 157.73333 28441 ft 458 kts 107°
2026-04-25 07:23 -35.71691 157.80860 28444 ft 458 kts 107°
2026-04-25 07:23 -35.73458 157.88391 28444 ft 458 kts 107°
2026-04-25 07:24 -35.75221 157.95928 28441 ft 458 kts 107°
2026-04-25 07:24 -35.76979 158.03466 28441 ft 458 kts 107°
2026-04-25 07:25 -35.78644 158.11048 28444 ft 459 kts 104°
2026-04-25 07:25 -35.79987 158.18726 28443 ft 459 kts 102°
2026-04-25 07:26 -35.81252 158.26431 28443 ft 459 kts 102°
2026-04-25 07:26 -35.82538 158.34131 28463 ft 458 kts 103°
2026-04-25 07:27 -35.83194 158.37901 28211 ft 456 kts 103°
2026-04-25 07:27 -35.83883 158.41772 27577 ft 457 kts 103°